Hourly Weather Roundup
Issued by NWS Central Illinois

Home | Current Version | Previous Version | Text Only | Print | Product List | Glossary On
Versions: 1 2 3 4 5 6 7 8 9 10 11 12 13 14 15 16 17 18 19 20 21 22 23 24 25 26 27 28 29 30 31 32 33 34 35 36 37 38 39 40 41 42 43 44 45 46 47 48 49 50
717
NZUS43 KILX 260010
HWRILX

AREA WEATHER ROUNDUP
NATIONAL WEATHER SERVICE, LINCOLN IL
700 PM CDT WED MAY 25 2016


CITY           SKY/WX    TMP DP  RH WIND       PRES   REMARKS
BLOOMINGTON    MOSUNNY   82  66  58 SW18G24   29.91S HX  84
6HR MIN TEMP:  81; 6HR MAX TEMP:  87;

CHAMPAIGN      CLOUDY    78  64  61 S18G24    29.93R HX  80
6HR MIN TEMP:  78; 6HR MAX TEMP:  88;

DANVILLE       SUNNY     78  64  61 S17       29.91R HX  80
6HR MIN TEMP:  78; 6HR MAX TEMP:  86;

DECATUR        CLOUDY    78  65  63 S15G23    29.92R HX  80
6HR MIN TEMP:  78; 6HR MAX TEMP:  83; 6HR PCP: TRACE;

EFFINGHAM      CLOUDY    75  68  78 S9        29.97R
FLORA          CLOUDY    76  69  79 S9        29.97S
6HR MIN TEMP:  71; 6HR MAX TEMP:  80; 6HR PCP:  0.04;

GALESBURG      MOSUNNY   82  64  53 SW10      29.87R HX  84
JACKSONVILLE   PTSUNNY   81  65  58 S14G20    29.90R HX  83
6HR MIN TEMP:  80; 6HR MAX TEMP:  84;

LACON          SUNNY     82  65  57 SW9G18    29.86R HX  83
6HR MIN TEMP:  77; 6HR MAX TEMP:  86;

LAWRENCEVILLE  CLOUDY    75  66  73 S15       29.98F
6HR MIN TEMP:  74; 6HR MAX TEMP:  79;

LITCHFIELD     SUNNY     76  65  68 S14G23    29.94R
$$


CITY           SKY/WX    TMP DP  RH WIND       PRES   REMARKS
LINCOLN        PTSUNNY   80  67  63 S6G16     29.91R HX  82
6HR MIN TEMP:  79; 6HR MAX TEMP:  84;

MACOMB         MOSUNNY   82  64  54 S12G18    29.90R HX  83
MATTOON        SUNNY     74  64  71 S14       29.94S
6HR MIN TEMP:  74; 6HR MAX TEMP:  79;

MT CARMEL AP   MOSUNNY   75  66  74 S12       29.99R
6HR MIN TEMP:  71; 6HR MAX TEMP:  77;

OLNEY-NOBLE AP CLOUDY    73  68  83 S10       29.97S
PARIS          CLOUDY    76  65  67 S13       29.96F
6HR MIN TEMP:  76; 6HR MAX TEMP:  84;

PEORIA         SUNNY     81  64  56 SW13      29.88R HX  82
6HR MIN TEMP:  81; 6HR MAX TEMP:  86;

PONTIAC        SUNNY     82  63  52 SW18      29.90R HX  83
RANTOUL        CLOUDY    80  64  58 S15G21    29.93R HX  82
ROBINSON       CLOUDY    72  65  78 S9        29.99S
6HR MIN TEMP:  71; 6HR MAX TEMP:  78;

SPRINGFIELD    PTSUNNY   81  65  58 S13G22    29.91R HX  83
6HR MIN TEMP:  79; 6HR MAX TEMP:  84;

TAYLORVILLE    MOSUNNY   77  66  68 S14       29.92S
$$

...REGIONAL REPORTS...


CITY           SKY/WX    TMP DP  RH WIND       PRES   REMARKS
CHICAGO O`HARE TSTM      67  64  90 E10       29.92F FOG
KANKAKEE       PTSUNNY  N/A N/A N/A S14       29.91R
MOLINE         MOSUNNY   83  59  44 SW7       29.85R HX  83
MOUNT STERLING SUNNY     80  65  60 S13       29.88S HX  81
MOUNT VERNON   CLOUDY    73  66  78 S15       29.99R
PITTSFIELD     SUNNY     81  65  59 S9G16     29.91S HX  83
QUINCY         SUNNY     81  63  54 S14       29.89R HX  82
ROCKFORD       CLOUDY    73  63  70 SE8       29.87S
$$


CITY           SKY/WX    TMP DP  RH WIND       PRES   REMARKS
BURLINGTON     SUNNY     83  64  52 SW12      29.86R HX  84
CEDAR RAPIDS   SUNNY     81  60  48 SW13G22   29.84S HX  82
DES MOINES     MOSUNNY   79  62  56 CALM      29.85S HX  80
KIRKSVILLE     SUNNY     81  63  54 S7        29.89R HX  82
OTTUMWA        SUNNY     80  62  54 SW8       29.85F HX  81
ST LOUIS       MOSUNNY   82  64  54 SW14      29.93S HX  83
$$


CITY           SKY/WX    TMP DP  RH WIND       PRES   REMARKS
TERRE HAUTE    CLOUDY    75  62  64 S15       29.97F
EVANSVILLE     CLOUDY    72  64  76 S9        30.02R
INDIANAPOLIS   MOSUNNY   77  64  64 SW17      29.98R
LAFAYETTE      MOSUNNY   79  57  46 SW8G18    29.94R HX  80
MADISON        CLOUDY    75  66  73 SE12      29.82F
MILWAUKEE      CLOUDY    53  51  93 N8        29.91R FOG
$$






USA.gov is the U.S. government's official web portal to all federal, state and local government web resources and services.